Weather reports worldwide

Advertisment
Andrewsfield, United Kingdom (3684): temperature & dewpoint: 24.09.2020 06:00:00 - 30.09.2020 06:00:00 (BST)Andrewsfield, United Kingdom (3684): temperature -20cm & temperature -100cm: 24.09.2020 06:00:00 - 30.09.2020 06:00:00 (BST)Andrewsfield, United Kingdom (3684): wind speed & gusts: 24.09.2020 06:00:00 - 30.09.2020 06:00:00 (BST)Andrewsfield, United Kingdom (3684): wind direction: 24.09.2020 06:00:00 - 30.09.2020 06:00:00 (BST)Andrewsfield, United Kingdom (3684): reduced air pressure: 24.09.2020 06:00:00 - 30.09.2020 06:00:00 (BST)Andrewsfield, United Kingdom (3684): visibility: 24.09.2020 06:00:00 - 30.09.2020 06:00:00 (BST)Andrewsfield, United Kingdom (3684): precipitation: 24.09.2020 06:00:00 - 30.09.2020 06:00:00 (BST)
Date & Time tt [°C] td [°C] tt -20cm [°C] tt -100cm [°C] ff [km/h] ff [kn] fx [km/h] fx [kn] dd ppp [hPa] vv [km] rr [mm]
30.09.2020 06:00:00 10,2 10,2 - - 8 4 - - SSW 1011,4 0,1 -
30.09.2020 05:00:00 10,0 10,0 - - 9 5 - - SSW 1011,9 0,1 0,0
30.09.2020 04:00:00 10,0 10,0 - - 8 4 - - S 1012,2 0,1 0,0
30.09.2020 03:00:00 10,3 10,3 - - 8 4 - - SSE 1013,0 0,7 0,0
30.09.2020 02:00:00 11,0 10,9 - - 8 4 - - S 1013,7 3,5 0,0
30.09.2020 01:00:00 11,1 11,1 - - 8 4 - - SSE 1013,8 5 0,0
30.09.2020 00:00:00 10,7 10,7 - - 9 5 - - SE 1014,3 3,3 0,0
29.09.2020 23:00:00 10,6 10,6 - - 4 2 - - SE 1014,9 2,5 0,0
29.09.2020 22:00:00 9,1 8,9 - - 2 1 - - ESE 1015,3 0,2 0,0
29.09.2020 21:00:00 10,1 9,8 - - 4 2 - - SW 1015,5 0,2 0,0
29.09.2020 20:00:00 11,1 10,5 - - 2 1 - - ESE 1015,4 0,5 0,0
29.09.2020 19:00:00 12,7 11,5 - - 4 2 - - N 1015,3 25 0,0
29.09.2020 18:00:00 14,3 11,8 - - 8 4 - - NW 1015,1 30 0,0
29.09.2020 17:00:00 14,4 12,2 - - 11 6 - - NW 1015,1 40 0,0
29.09.2020 16:00:00 14,2 13,1 - - 13 7 - - NW 1015,1 35 0,0
29.09.2020 15:00:00 13,8 13,0 - - 16 9 - - WNW 1015,0 40 0,0
29.09.2020 14:00:00 14,4 13,6 - - 11 6 - - NW 1014,9 11 0,0
29.09.2020 13:00:00 14,1 13,6 - - 13 7 - - NW 1014,9 21 0,0
29.09.2020 12:00:00 14,4 14,2 - - 11 6 - - WNW 1014,6 4,2 0,2
29.09.2020 11:00:00 14,5 14,4 - - 5 3 - - ESE 1014,6 6 0,0
29.09.2020 10:00:00 13,9 13,9 13,7 15,5 9 5 - - SE 1014,6 6 0,8
29.09.2020 09:00:00 13,2 13,2 - - 8 4 - - ESE 1014,3 1,6 1,0
29.09.2020 08:00:00 13,0 13,0 - - 5 3 - - ESE 1014,1 2,1 0,8
29.09.2020 07:00:00 12,5 12,4 - - 5 3 - - ESE 1013,8 1,0 0,6
29.09.2020 06:00:00 12,3 12,0 - - 5 3 - - ESE 1013,8 1,3 0,2
29.09.2020 05:00:00 12,2 11,7 - - 4 2 - - ESE 1013,9 5 0,2
29.09.2020 04:00:00 12,2 11,4 - - 2 1 - - WSW 1013,9 8 0,4
29.09.2020 03:00:00 11,7 10,8 - - 4 2 - - WSW 1014,0 17 0,0
29.09.2020 02:00:00 10,8 9,7 - - 8 4 - - WSW 1014,0 17 0,0
29.09.2020 01:00:00 10,5 9,3 - - 9 5 - - WSW 1014,0 26 0,0
29.09.2020 00:00:00 10,5 8,9 - - 8 4 - - W 1014,0 40 0,0
28.09.2020 23:00:00 11,0 8,7 - - 8 4 - - WSW 1014,1 65 0,0
28.09.2020 22:00:00 11,3 8,4 - - 4 2 - - WSW 1014,0 55 0,0
28.09.2020 21:00:00 12,7 8,5 - - 5 3 - - WSW 1013,6 55 0,0
28.09.2020 20:00:00 14,0 8,5 - - 4 2 - - W 1013,3 70 0,0
28.09.2020 19:00:00 14,9 8,0 - - 5 3 - - WNW 1012,7 65 0,0
28.09.2020 18:00:00 15,5 6,0 - - 8 4 - - WNW 1012,2 45 0,0
28.09.2020 17:00:00 16,3 3,1 - - 15 8 - - WNW 1011,8 75 0,0
28.09.2020 16:00:00 16,8 2,5 - - 13 7 - - NW 1011,7 75 0,0
28.09.2020 15:00:00 16,0 1,5 - - 15 8 - - WNW 1012,0 75 0,0
28.09.2020 14:00:00 15,9 4,8 - - 15 8 - - WNW 1012,3 75 0,0
28.09.2020 13:00:00 13,3 7,2 - - 13 7 - - WNW 1012,4 40 0,0
28.09.2020 12:00:00 12,8 7,7 - - 13 7 - - NW 1012,5 40 0,0
28.09.2020 11:00:00 11,1 7,5 - - 11 6 - - NW 1012,7 40 0,0
28.09.2020 10:00:00 10,1 7,2 13,2 15,7 13 7 - - NW 1012,6 40 0,0
28.09.2020 09:00:00 9,8 7,1 - - 13 7 - - NW 1012,3 45 0,0
28.09.2020 08:00:00 9,5 7,3 - - 11 6 - - NW 1012,2 55 0,0
28.09.2020 07:00:00 9,3 7,1 - - 13 7 - - NW 1011,9 45 0,0
28.09.2020 06:00:00 9,5 7,5 - - 11 6 - - NW 1011,7 55 0,0
28.09.2020 05:00:00 9,6 7,8 - - 11 6 - - NNW 1011,9 45 0,0
28.09.2020 04:00:00 9,9 8,0 - - 13 7 - - NW 1012,0 40 0,0
28.09.2020 03:00:00 10,1 8,0 - - 13 7 - - NNW 1012,2 45 0,0
28.09.2020 02:00:00 10,2 7,9 - - 16 9 - - NNW 1012,4 45 0,0
28.09.2020 01:00:00 10,2 8,0 - - 15 8 - - NNW 1013,0 45 0,0
28.09.2020 00:00:00 10,2 7,9 - - 15 8 - - NNW 1012,9 40 0,0
27.09.2020 23:00:00 10,3 7,9 - - 16 9 - - NNW 1012,7 40 0,0
27.09.2020 22:00:00 10,3 7,8 - - 16 9 - - NNW 1012,7 35 0,0
27.09.2020 21:00:00 10,6 7,9 - - 16 9 - - NNW 1012,6 35 0,0
27.09.2020 20:00:00 11,0 8,0 - - 16 9 - - NNW 1012,6 40 0,0
27.09.2020 19:00:00 11,3 8,2 - - 16 9 - - NNW 1012,2 40 0,0
27.09.2020 18:00:00 11,9 8,9 - - 21 11 - - N 1011,8 55 0,0
27.09.2020 17:00:00 11,7 9,2 - - 21 11 - - N 1011,5 45 0,0
27.09.2020 16:00:00 11,6 9,2 - - 22 12 - - N 1011,4 40 0,0
27.09.2020 15:00:00 11,4 9,3 - - 21 11 - - NNW 1011,4 30 0,0
27.09.2020 14:00:00 11,3 9,4 - - 22 12 - - NNW 1011,3 20 0,0
27.09.2020 13:00:00 10,8 9,4 - - 22 12 46 25 N 1011,3 30 0,0
27.09.2020 12:00:00 10,1 9,2 - - 22 12 - - NNW 1010,7 12 0,0
27.09.2020 11:00:00 9,6 8,6 - - 22 12 48 26 N 1010,8 8 0,0
27.09.2020 10:00:00 9,6 8,3 - - 28 15 54 29 NNW 1010,1 35 0,0
27.09.2020 09:00:00 8,9 8,2 - - 26 14 48 26 NNW 1010,1 3,2 0,0
27.09.2020 08:00:00 8,5 7,8 - - 24 13 - - NNW 1009,5 5 0,0
27.09.2020 07:00:00 8,6 7,7 - - 24 13 48 26 NNW 1009,3 4,0 0,0
27.09.2020 06:00:00 8,7 7,8 - - 26 14 52 28 NNW 1009,0 6 0,0
27.09.2020 05:00:00 8,6 7,5 - - 26 14 57 31 NNW 1009,3 4,4 0,0
27.09.2020 04:00:00 8,6 7,6 - - 26 14 52 28 NNW 1009,5 5 0,2
27.09.2020 03:00:00 8,9 7,5 - - 28 15 48 26 NNW 1009,7 14 0,0
27.09.2020 02:00:00 8,9 7,5 - - 22 12 55 30 NNW 1010,0 16 0,0
27.09.2020 01:00:00 9,2 7,3 - - 24 13 46 25 NNW 1010,2 21 0,0
27.09.2020 00:00:00 9,5 7,1 - - 26 14 52 28 NNW 1010,6 15 0,0
26.09.2020 23:00:00 9,8 6,9 - - 24 13 54 29 NNW 1010,9 29 0,0
26.09.2020 22:00:00 10,2 6,9 - - 28 15 50 27 NNW 1010,6 29 0,0
26.09.2020 21:00:00 10,4 7,7 - - 24 13 50 27 NNW 1010,6 9 0,0
26.09.2020 20:00:00 10,4 7,6 - - 26 14 46 25 NNW 1010,1 22 0,0
26.09.2020 19:00:00 10,6 8,3 - - 26 14 48 26 NNW 1010,0 19 0,0
26.09.2020 18:00:00 10,5 8,6 - - 26 14 50 27 NNW 1009,7 22 0,0
26.09.2020 17:00:00 10,0 8,2 - - 24 13 - - NNW 1009,4 9 0,0
26.09.2020 16:00:00 10,0 7,4 - - 24 13 50 27 NW 1009,3 35 0,0
26.09.2020 15:00:00 10,0 7,0 - - 26 14 52 28 NW 1009,3 21 0,0
26.09.2020 14:00:00 10,6 5,8 - - 24 13 48 26 NNW 1008,7 65 0,0
26.09.2020 13:00:00 10,1 4,8 - - 29 16 50 27 NW 1008,6 65 0,0
26.09.2020 12:00:00 9,1 4,8 - - 26 14 48 26 NW 1008,7 50 0,0
26.09.2020 11:00:00 8,7 5,0 - - 26 14 48 26 NW 1008,8 65 0,0
26.09.2020 10:00:00 7,5 3,3 - - 24 13 46 25 NW 1008,7 75 0,0
26.09.2020 09:00:00 6,4 2,3 - - 22 12 - - NW 1008,8 65 0,0
26.09.2020 08:00:00 5,6 1,5 - - 24 13 - - NW 1008,5 70 0,0
26.09.2020 07:00:00 5,7 1,5 - - 22 12 - - NW 1008,1 65 0,0
26.09.2020 06:00:00 6,6 1,9 - - 26 14 46 25 NW 1008,0 55 0,0
26.09.2020 05:00:00 7,0 2,2 - - 24 13 - - NW 1007,8 50 0,0
26.09.2020 04:00:00 7,6 2,6 - - 26 14 48 26 NW 1007,4 45 0,0
26.09.2020 03:00:00 7,6 2,5 - - 24 13 - - NW 1007,4 50 0,0
26.09.2020 02:00:00 8,1 2,7 - - 24 13 - - NW 1007,3 55 0,0
26.09.2020 01:00:00 8,8 3,3 - - 28 15 - - NW 1006,9 75 0,0
26.09.2020 00:00:00 9,5 4,2 - - 26 14 52 28 NW 1006,5 75 0,0
25.09.2020 23:00:00 9,6 5,3 - - 28 15 55 30 NW 1006,4 75 0,0
25.09.2020 22:00:00 9,6 5,5 - - 29 16 55 30 NW 1006,2 75 0,0
25.09.2020 21:00:00 10,2 4,8 - - 26 14 50 27 NW 1005,6 75 0,0
25.09.2020 20:00:00 11,0 1,5 - - 29 16 54 29 NW 1004,7 75 0,0
25.09.2020 19:00:00 11,9 1,1 - - 29 16 52 28 NW 1003,9 75 0,0
25.09.2020 18:00:00 12,3 3,3 - - 24 13 63 34 NW 1003,2 75 0,0
25.09.2020 17:00:00 12,3 4,3 - - 35 19 61 33 NW 1002,5 75 0,0
25.09.2020 16:00:00 11,9 5,0 - - 28 15 63 34 NW 1001,8 75 0,0
25.09.2020 15:00:00 11,5 5,2 - - 34 18 63 34 NW 1001,2 75 0,0
25.09.2020 14:00:00 11,3 5,5 - - 39 21 61 33 NW 1000,4 70 0,0
25.09.2020 13:00:00 11,2 5,6 - - 34 18 65 35 NW 999,7 70 0,0
25.09.2020 12:00:00 10,5 6,4 - - 35 19 63 34 NW 999,2 60 0,2
25.09.2020 11:00:00 9,8 6,1 - - 31 17 52 28 NW 998,8 50 0,0
25.09.2020 10:00:00 9,6 6,4 15,0 16,4 29 16 54 29 NW 997,8 45 0,0
25.09.2020 09:00:00 8,3 7,0 - - 22 12 - - NW 997,1 40 0,8
25.09.2020 08:00:00 8,1 7,2 - - 24 13 - - NW 996,1 5 1,2
25.09.2020 07:00:00 8,2 6,9 - - 22 12 - - NW 995,3 18 0,4
25.09.2020 06:00:00 8,1 7,1 - - 16 9 - - NW 995,0 8 0,0
25.09.2020 05:00:00 8,0 6,7 - - 15 8 - - NW 994,3 30 0,0
25.09.2020 04:00:00 7,4 6,2 - - 13 7 - - NW 993,9 75 0,0
25.09.2020 03:00:00 7,6 6,4 - - 15 8 - - NW 993,7 70 0,0
25.09.2020 02:00:00 7,6 7,0 - - 11 6 - - NW 993,4 35 0,0
25.09.2020 01:00:00 7,8 7,2 - - 8 4 - - W 993,6 27 0,0
25.09.2020 00:00:00 8,3 8,1 - - 8 4 - - W 993,4 18 0,0
24.09.2020 23:00:00 8,7 8,1 - - 5 3 - - WSW 993,3 23 0,0
24.09.2020 22:00:00 9,3 8,3 - - 4 2 - - SSW 993,4 50 0,0
24.09.2020 21:00:00 9,6 8,5 - - 5 3 - - SSW 993,4 60 0,0
24.09.2020 20:00:00 9,9 8,3 - - 5 3 - - SSE 993,2 75 0,0
24.09.2020 19:00:00 10,4 8,2 - - 11 6 - - SSE 993,6 75 0,2
24.09.2020 18:00:00 10,8 7,9 - - 9 5 - - SE 994,1 75 0,0
24.09.2020 17:00:00 10,9 7,6 - - 9 5 - - S 994,7 50 0,2
24.09.2020 16:00:00 11,8 6,3 - - 13 7 54 29 WSW 995,2 75 0,0
24.09.2020 15:00:00 14,6 6,0 - - 21 11 - - SSW 995,1 75 0,0
24.09.2020 14:00:00 15,5 5,9 - - 31 17 48 26 SW 995,5 75 0,0
24.09.2020 13:00:00 15,2 7,0 - - 29 16 48 26 SW 995,6 75 0,0
24.09.2020 12:00:00 14,7 6,8 - - 29 16 46 25 SW 995,4 70 0,0
24.09.2020 11:00:00 13,7 8,3 - - 29 16 - - SW 995,8 60 0,0
24.09.2020 10:00:00 12,5 9,0 16,0 16,5 22 12 - - SW 995,7 75 0,0
24.09.2020 09:00:00 10,6 9,5 - - 15 8 - - SSW 995,6 70 0,0
24.09.2020 08:00:00 8,8 8,4 - - 11 6 - - SSE 996,1 65 1,6
24.09.2020 07:00:00 8,0 7,2 - - 8 4 - - S 997,4 10 0,4
24.09.2020 06:00:00 7,2 6,3 - - 9 5 - - SSE 997,9 55 0,0

tt = temperature
td = dewpoint
tt -20cm = temperature -20cm
tt -100cm = temperature -100cm
ff = wind speed
fx = gusts
dd = wind direction
ppp = reduced air pressure
vv = visibility
rr = precipitation

Next stations